Wind_Speed
15 15 15 15 14 15 15 16 16 16 16 16 17 17 17 18 18 18 19 20 20 20 21 21 21 21 22 22 22 22 22 22 22 22 22 22 22 22
16 16 16 16 17 17 18 18 19 19 19 20 20 20 21 22 22 22 22 23 24 24 25 25 25 25 25 25 25 25 25 25 25 25 25 25 25 25
18 18 18 18 19 20 20 21 21 22 23 23 24 24 25 25 25 26 26 27 27 28 28 29 29 28 29 29 29 29 29 29 29 29 29 29 28 28
20 20 20 21 21 22 22 23 24 24 25 26 27 28 28 29 29 29 30 30 30 30 31 30 31 31 31 31 32 32 32 32 32 32 32 31 31 31
21 22 22 23 23 24 25 26 26 27 28 29 30 31 31 32 32 33 34 34 34 33 33 34 34 34 34 34 34 34 34 34 34 34 34 34 33 33
22 23 23 24 25 26 27 28 29 30 31 32 33 34 35 35 36 36 36 36 37 38 37 37 36 36 36 37 37 37 37 37 37 37 37 37 36 35
24 25 26 27 28 29 30 31 32 33 34 35 35 36 37 38 38 39 39 39 39 40 40 40 39 39 39 40 40 40 40 40 40 40 40 40 39 39
25 27 29 30 31 32 33 33 34 36 37 38 39 39 39 40 40 40 40 41 40 41 42 42 42 42 42 42 42 42 43 43 43 43 44 43 43 43
27 29 31 32 33 33 34 35 36 37 39 40 39 40 41 42 43 43 43 43 43 43 44 43 44 45 45 45 45 45 45 46 46 47 47 48 47 47
30 31 33 33 34 34 35 36 37 38 40 41 41 42 43 44 45 46 45 46 45 44 46 46 46 47 47 48 48 48 48 48 49 49 49 49 49 49
31 32 33 34 35 36 37 38 39 40 41 42 43 42 43 44 45 46 47 47 48 48 49 50 49 49 49 49 50 50 50 49 49 50 50 50 50 50
34 35 35 36 37 38 39 40 41 41 42 43 43 44 44 45 47 48 49 50 51 51 51 52 52 52 51 50 51 52 51 51 51 50 50 50 51 52
37 37 38 39 39 41 42 43 43 44 45 46 47 47 48 49 50 51 52 53 53 53 53 54 54 53 54 52 52 52 52 52 52 52 52 51 52 52
37 38 39 40 42 43 44 45 46 48 48 49 50 50 51 52 53 53 53 53 53 54 54 55 55 54 55 54 53 53 53 53 53 53 53 53 53 52
39 40 41 43 44 45 46 47 48 49 50 52 53 54 54 54 54 54 53 54 53 53 54 54 55 54 54 53 53 52 52 51 51 51 51 51 51 51
41 42 44 45 46 47 48 49 50 51 52 53 53 54 54 54 54 55 55 54 54 53 53 54 54 53 52 51 51 50 49 48 48 49 49 48 48 49
43 44 46 47 48 49 50 51 51 52 52 52 52 52 53 53 53 53 53 54 54 53 53 52 52 51 50 49 47 47 46 46 46 46 47 46 46 46
46 46 47 48 49 50 51 51 52 52 52 52 52 52 51 51 51 52 52 52 51 51 50 49 49 48 46 44 45 44 43 43 43 43 43 43 42 43
47 47 48 49 50 51 51 51 51 51 51 51 51 51 50 50 49 49 50 49 49 49 48 47 46 45 43 41 41 41 42 41 40 40 40 40 39 39
47 48 48 48 49 48 48 49 48 48 49 49 49 47 47 47 47 47 48 47 47 46 45 44 43 42 40 39 38 37 38 38 37 36 36 36 36 36
45 45 45 45 45 45 46 45 45 46 46 46 46 45 45 45 45 46 45 45 44 43 42 40 39 39 38 37 35 34 35 36 36 34 34 34 34 33
42 42 42 43 43 43 43 44 44 45 44 44 43 43 43 42 42 41 40 40 40 38 37 36 36 35 34 34 33 33 33 34 34 33 32 31 30 29
41 41 41 41 42 42 41 41 42 42 42 40 39 39 38 38 37 37 36 36 35 34 34 32 32 31 31 31 31 31 31 30 30 29 28 28 27 27
Wind_Direction
260 264 265 267 269 271 275 277 279 281 283 284 286 288 290 292 293 294 295 296 296 296 297 297 297 297 295 295 295 295 294 293 292 292 293 292 291 290
259 262 264 267 269 272 276 277 279 281 283 284 285 285 287 287 289 289 291 292 292 292 292 292 293 293 293 291 290 291 291 290 289 288 288 288 288 287
257 260 265 269 271 273 276 277 278 280 282 283 284 285 286 285 285 286 287 288 289 290 291 290 290 290 290 290 289 289 288 288 287 286 286 286 286 285
259 262 267 270 272 274 275 276 277 279 281 282 283 285 286 286 286 286 287 288 288 287 288 289 289 289 289 288 288 288 287 286 286 286 285 284 283 283
261 265 269 272 275 276 277 277 277 278 279 281 282 283 284 284 285 286 286 287 288 287 287 288 288 288 288 287 287 286 286 285 284 284 284 283 282 281
264 268 269 272 274 276 278 279 278 279 280 280 281 282 283 283 283 284 285 285 286 287 286 286 286 286 286 285 285 285 285 284 283 282 281 281 280 279
267 270 272 274 277 279 279 279 279 280 281 282 282 283 283 283 284 284 284 285 286 287 286 286 286 285 285 285 284 283 283 283 282 281 281 280 280 278
273 274 275 277 278 280 280 280 280 281 281 282 283 284 283 283 284 284 285 285 286 286 286 287 287 286 286 284 282 282 281 281 281 280 280 279 279 278
276 276 278 278 279 280 281 282 282 283 283 283 283 285 285 284 284 284 285 285 286 286 286 286 286 286 286 285 284 283 282 281 280 280 279 279 278 277
279 280 280 279 279 281 283 284 285 285 285 284 284 284 284 284 284 284 285 285 286 286 286 286 285 285 284 283 283 283 282 282 280 279 278 277 277 276
281 282 281 281 281 283 284 286 286 286 285 285 286 285 285 285 285 285 286 286 286 285 285 285 285 284 283 283 282 282 282 281 280 279 279 278 277 276
283 284 284 283 283 284 285 287 288 287 286 286 286 286 286 286 286 287 288 287 287 286 286 286 285 284 283 283 283 283 282 281 279 279 278 278 277 276
284 284 284 285 285 286 287 288 288 287 287 287 287 288 288 288 288 288 288 288 288 288 287 287 286 285 284 283 283 283 282 280 279 279 278 278 277 276
285 285 285 285 285 286 287 288 288 288 287 287 287 288 288 288 289 289 289 289 289 288 288 287 287 286 286 285 284 283 282 281 280 278 277 276 276 275
285 286 286 287 287 288 288 288 289 289 289 288 288 289 289 289 289 289 289 288 288 288 288 288 288 287 287 286 285 284 282 280 280 279 278 276 275 275
288 288 289 289 290 290 290 290 289 289 289 289 289 289 289 289 289 288 288 288 288 287 288 288 288 288 287 286 285 284 283 281 280 278 277 277 277 276
289 289 289 289 289 290 290 290 290 290 291 291 290 289 289 289 289 289 288 288 288 288 288 287 287 287 287 287 286 284 283 282 281 280 280 278 277 277
289 289 289 290 290 291 291 292 292 292 291 290 290 290 289 289 289 288 288 288 288 288 288 288 288 287 287 286 285 284 283 283 282 281 280 280 278 277
289 289 290 290 290 291 291 292 292 292 291 291 290 290 289 289 288 288 288 288 289 289 289 289 289 289 288 286 284 284 285 285 284 282 281 280 280 279
290 291 291 291 292 292 293 293 293 292 292 291 290 289 289 289 289 288 289 289 289 290 290 289 288 287 287 286 285 285 286 286 286 285 283 282 283 282
294 294 294 294 294 293 294 294 294 293 293 292 291 290 289 290 289 289 290 290 290 290 289 288 287 287 287 287 287 286 287 287 287 287 286 286 285 284
298 297 296 296 296 296 295 295 295 295 294 293 292 291 291 291 291 292 292 291 291 290 289 287 287 287 288 288 287 286 286 287 288 288 289 290 289 287
299 299 298 297 297 297 297 296 296 296 295 294 293 293 292 292 291 292 292 293 292 290 290 290 291 290 289 288 288 288 288 286 286 287 289 291 293 293
Height
5875 5876 5876 5877 5877 5877 5878 5878 5879 5879 5879 5879 5878 5878 5878 5877 5877 5877 5876 5875 5875 5874 5873 5872 5871 5870 5869 5868 5867 5866 5865 5864 5863 5862 5861 5860 5859 5858
5871 5872 5872 5873 5873 5873 5873 5874 5874 5874 5874 5874 5874 5874 5873 5873 5872 5871 5871 5870 5869 5868 5867 5866 5865 5864 5863 5862 5861 5860 5859 5858 5857 5855 5854 5853 5852 5851
5866 5867 5868 5868 5868 5868 5868 5868 5869 5869 5869 5869 5868 5867 5867 5866 5866 5865 5864 5863 5862 5861 5860 5859 5858 5857 5855 5854 5853 5852 5851 5850 5849 5848 5847 5846 5845 5844
5861 5862 5863 5863 5863 5863 5863 5863 5863 5863 5863 5862 5861 5861 5860 5859 5858 5857 5856 5856 5855 5854 5852 5851 5850 5848 5847 5846 5845 5844 5842 5841 5840 5839 5838 5837 5836 5835
5856 5857 5857 5857 5857 5857 5857 5856 5856 5856 5856 5855 5854 5853 5852 5851 5850 5849 5848 5847 5846 5845 5844 5843 5841 5840 5839 5837 5836 5834 5833 5832 5831 5829 5828 5828 5827 5826
5850 5850 5851 5851 5851 5850 5850 5849 5849 5849 5848 5847 5846 5845 5844 5843 5841 5840 5839 5838 5837 5835 5834 5833 5832 5831 5829 5827 5826 5825 5823 5822 5820 5819 5818 5817 5816 5815
5844 5844 5844 5844 5844 5843 5842 5842 5841 5840 5839 5838 5837 5836 5834 5833 5831 5830 5829 5828 5827 5825 5823 5822 5821 5820 5818 5817 5815 5813 5812 5810 5809 5808 5807 5806 5805 5804
5837 5837 5837 5837 5836 5835 5834 5833 5832 5831 5829 5828 5827 5826 5824 5823 5821 5819 5818 5817 5816 5814 5812 5811 5809 5808 5806 5805 5803 5801 5800 5798 5797 5795 5794 5793 5792 5791
5830 5829 5829 5828 5827 5826 5825 5823 5822 5821 5820 5818 5817 5815 5813 5811 5809 5808 5806 5805 5804 5802 5800 5799 5797 5795 5794 5791 5790 5788 5786 5785 5783 5782 5780 5779 5778 5777
5822 5821 5820 5819 5818 5817 5816 5814 5813 5811 5809 5807 5806 5804 5802 5799 5797 5796 5794 5792 5791 5789 5786 5785 5784 5782 5780 5778 5776 5774 5772 5770 5768 5766 5765 5763 5762 5762
5814 5812 5811 5810 5809 5807 5806 5804 5803 5800 5798 5796 5794 5792 5790 5787 5785 5782 5780 5778 5777 5776 5772 5770 5768 5766 5765 5763 5761 5758 5756 5754 5752 5750 5749 5747 5746 5745
5805 5803 5802 5800 5799 5797 5795 5793 5791 5789 5786 5784 5782 5779 5777 5775 5772 5769 5767 5764 5762 5761 5758 5754 5752 5750 5749 5748 5745 5742 5740 5738 5736 5734 5732 5730 5728 5727
5795 5793 5792 5790 5788 5786 5784 5782 5779 5777 5774 5772 5769 5766 5764 5761 5758 5755 5752 5749 5747 5744 5741 5737 5735 5732 5730 5730 5728 5725 5722 5720 5718 5716 5715 5713 5711 5710
5784 5782 5780 5779 5777 5774 5772 5769 5766 5763 5761 5758 5755 5752 5749 5746 5743 5740 5737 5734 5730 5728 5724 5720 5718 5715 5713 5711 5710 5707 5704 5702 5700 5698 5697 5695 5693 5692
5773 5770 5768 5766 5764 5761 5758 5755 5752 5749 5746 5743 5739 5736 5733 5730 5727 5724 5721 5718 5715 5711 5707 5704 5700 5697 5694 5692 5691 5689 5686 5684 5681 5679 5678 5677 5675 5674
5761 5758 5756 5753 5750 5747 5744 5741 5738 5734 5731 5728 5724 5721 5717 5714 5711 5708 5705 5701 5698 5696 5691 5687 5683 5680 5677 5675 5672 5671 5668 5666 5664 5662 5660 5659 5658 5657
5749 5746 5743 5740 5737 5734 5730 5726 5723 5719 5715 5712 5708 5705 5701 5698 5694 5691 5687 5684 5681 5678 5675 5671 5667 5664 5661 5658 5656 5653 5652 5650 5648 5645 5644 5643 5642 5640
5736 5733 5729 5726 5723 5719 5716 5712 5707 5704 5700 5696 5692 5688 5685 5681 5678 5674 5670 5667 5664 5661 5658 5654 5651 5648 5646 5643 5640 5638 5636 5634 5632 5630 5628 5627 5627 5625
5721 5718 5715 5711 5708 5704 5700 5696 5692 5688 5684 5680 5677 5673 5669 5666 5662 5658 5655 5652 5648 5645 5642 5639 5635 5632 5631 5630 5627 5623 5621 5620 5617 5616 5613 5612 5611 5610
5707 5703 5700 5697 5693 5689 5685 5681 5677 5673 5669 5665 5661 5658 5654 5650 5647 5643 5640 5637 5634 5631 5628 5624 5621 5618 5616 5615 5614 5612 5608 5605 5604 5602 5601 5599 5597 5595
5693 5689 5686 5682 5679 5675 5671 5667 5663 5659 5655 5651 5647 5643 5639 5636 5633 5629 5626 5622 5619 5616 5614 5611 5608 5606 5603 5602 5601 5600 5597 5594 5592 5590 5588 5586 5585 5583
5680 5676 5673 5669 5665 5662 5658 5654 5650 5645 5641 5637 5632 5629 5626 5622 5619 5616 5612 5609 5606 5604 5601 5599 5597 5594 5592 5590 5589 5588 5587 5584 5581 5579 5577 5575 5572 5571
5668 5664 5660 5656 5653 5649 5645 5641 5636 5632 5628 5623 5619 5616 5613 5610 5607 5604 5601 5598 5595 5593 5590 5588 5586 5584 5582 5580 5578 5577 5575 5573 5572 5570 5568 5565 5563 5561